Terminal Aerodrome Forecast
Issued by NWS Charleston, WV

Current Version | Previous Version | Graphics & Text | Print | Product List | Glossary On
Versions: 1 2 3 4 5 6 7 8 9 10 11 12 13 14 15 16 17 18 19 20 21 22 23 24 25 26
000
FTUS41 KRLX 261900 AAA
TAFCRW
TAF AMD
KCRW 261928Z 2619/2718 29008G16KT 4SM RA BR BKN010
     FM262000 33009G15KT P6SM BKN008
     FM262300 33007KT 3SM RA BR OVC008
     FM270400 30004KT P6SM OVC008
     FM271200 32007KT P6SM BKN025
     FM271500 32007KT P6SM BKN035=

USA.gov is the U.S. government's official web portal to all federal, state and local government web resources and services.